Stations météo

réclame
Mon MeteoGroup
Potsdam, Allemagne (10379): Température de l'air & dewpoint: 14.06.2018 07:00:00 - 20.06.2018 07:00:00 (CEST)Potsdam, Allemagne (10379): Température de l'air 5cm & Température de l'air -5cm: 14.06.2018 07:00:00 - 20.06.2018 07:00:00 (CEST)Potsdam, Allemagne (10379): Température de l'air -20cm & Température de l'air -100cm: 14.06.2018 07:00:00 - 20.06.2018 07:00:00 (CEST)Potsdam, Allemagne (10379): Vitesse du vent & gusts: 14.06.2018 07:00:00 - 20.06.2018 07:00:00 (CEST)Potsdam, Allemagne (10379): Direction du vent: 14.06.2018 07:00:00 - 20.06.2018 07:00:00 (CEST)Potsdam, Allemagne (10379): reduced air pressure: 14.06.2018 07:00:00 - 20.06.2018 07:00:00 (CEST)Potsdam, Allemagne (10379): visibility: 14.06.2018 07:00:00 - 20.06.2018 07:00:00 (CEST)Potsdam, Allemagne (10379): Ensoleillement: 14.06.2018 07:00:00 - 20.06.2018 07:00:00 (CEST)Potsdam, Allemagne (10379): Quantités de précipitations: 14.06.2018 07:00:00 - 20.06.2018 07:00:00 (CEST)
Date & Time tt [°C] td [°C] tt 5cm [°C] tt -5cm [°C] tt -20cm [°C] tt -100cm [°C] ff [km/h] ff [knt] fx [km/h] fx [knt] dd ppp [hPa] vv [km] sd [min] rr [mm]
20.06.2018 07:00:00 17,8 15,5 18,2 21,4 23,1 21,3 4 2 6 3 E 1023,4 35 0 0,0
20.06.2018 06:00:00 16,9 15,5 17,0 21,3 23,4 21,3 0 0 6 3 N 1023,4 35 0 0,0
20.06.2018 05:00:00 16,5 15,5 16,1 21,3 23,7 21,3 6 4 11 6 W 1023,5 35 0 0,0
20.06.2018 04:00:00 15,8 14,5 14,9 21,3 24,0 21,3 10 5 11 6 WSW 1023,3 35 0 0,0
20.06.2018 03:00:00 16,5 14,9 14,2 21,9 24,4 21,3 8 4 10 6 NNW 1023,2 35 0 0,0
20.06.2018 02:00:00 16,8 14,9 16,0 22,3 24,8 21,3 9 5 16 8 W 1023,2 35 0 0,0
20.06.2018 01:00:00 17,0 14,8 14,5 22,9 25,2 21,3 14 7 18 10 W 1022,9 35 0 0,0
20.06.2018 00:00:00 17,2 14,9 14,6 23,7 25,7 21,3 11 6 13 7 W 1022,9 40 0 0,0
19.06.2018 23:00:00 18,2 14,7 15,8 24,5 26,1 21,3 11 6 16 9 WNW 1022,7 40 0 0,0
19.06.2018 22:00:00 19,7 14,5 17,3 25,6 26,5 21,3 12 6 21 12 W 1022,3 40 2 0,0
19.06.2018 21:00:00 21,1 14,3 19,6 26,8 26,7 21,3 13 7 25 13 W 1021,6 40 23 0,0
19.06.2018 20:00:00 22,4 14,2 22,8 27,8 26,9 21,3 16 9 26 14 W 1021,5 40 0 0,0
19.06.2018 19:00:00 23,2 14,8 24,3 28,3 27,0 21,3 11 6 24 13 WNW 1021,5 40 3 0,0
19.06.2018 18:00:00 23,3 15,0 24,7 28,6 27,1 21,3 11 6 28 15 WNW 1021,6 40 0 0,0
19.06.2018 17:00:00 23,1 14,3 23,9 29,6 27,1 21,3 16 9 28 15 W 1021,4 40 0 0,0
19.06.2018 16:00:00 24,0 13,9 26,0 30,8 26,8 21,3 14 8 29 15 W 1021,0 40 7 0,0
19.06.2018 15:00:00 24,2 13,4 26,6 30,9 26,5 21,3 17 9 37 20 WSW 1020,8 35 11 0,0
19.06.2018 14:00:00 23,1 12,4 25,5 30,4 26,1 21,3 16 9 34 18 W 1021,0 35 0 0,0
19.06.2018 13:00:00 23,2 12,1 26,3 31,0 25,4 21,3 16 9 31 17 W 1020,9 35 6 0,0
19.06.2018 12:00:00 23,9 12,1 28,3 30,7 24,5 21,3 14 8 29 16 WNW 1020,6 35 51 0,0
19.06.2018 11:00:00 23,1 12,5 27,2 28,4 23,8 21,3 13 7 27 15 W 1020,8 40 60 0,0
19.06.2018 10:00:00 21,3 12,4 24,6 25,9 23,3 21,3 18 10 31 17 W 1020,6 40 60 0,0
19.06.2018 09:00:00 20,0 13,2 23,2 23,6 23,2 21,3 18 10 35 19 WNW 1020,6 40 58 0,0
19.06.2018 08:00:00 18,7 13,4 19,9 22,2 23,2 21,3 21 11 40 22 W 1020,4 38 15 0,0
19.06.2018 07:00:00 18,2 14,9 18,6 21,8 23,4 21,3 15 8 25 13 WSW 1020,2 35 0 0,0
19.06.2018 06:00:00 17,8 14,5 17,9 21,7 23,6 21,3 11 6 27 14 W 1019,9 40 0 0,0
19.06.2018 05:00:00 17,3 13,8 16,5 21,8 23,9 21,3 13 7 17 9 SW 1019,3 45 0 0,0
19.06.2018 04:00:00 17,3 13,6 14,5 22,3 24,2 21,3 13 7 22 12 WSW 1019,4 48 0 0,0
19.06.2018 03:00:00 18,6 13,7 18,0 22,7 24,5 21,3 14 8 25 13 W 1019,4 48 0 0,0
19.06.2018 02:00:00 18,4 13,4 17,8 22,9 24,9 21,3 15 8 23 12 WSW 1019,5 48 0 0,0
19.06.2018 01:00:00 17,9 12,6 16,5 23,4 25,3 21,3 15 8 19 11 SW 1019,4 48 0 0,0
19.06.2018 00:00:00 17,8 12,5 15,4 24,0 25,7 21,3 15 8 17 9 SSW 1019,7 48 0 0,0
18.06.2018 23:00:00 18,6 13,0 17,3 24,7 26,1 21,3 12 7 16 9 SW 1019,6 45 0 0,0
18.06.2018 22:00:00 19,1 12,9 17,4 25,8 26,5 21,3 13 7 16 9 W 1019,4 45 6 0,0
18.06.2018 21:00:00 21,2 12,6 19,8 27,2 26,7 21,3 14 8 26 14 W 1018,7 45 44 0,0
18.06.2018 20:00:00 22,2 12,5 22,9 28,1 26,8 21,3 16 8 29 15 W 1018,7 45 0 0,0
18.06.2018 19:00:00 22,8 11,4 23,9 28,8 26,9 21,3 11 6 21 12 W 1018,9 45 0 0,0
18.06.2018 18:00:00 22,7 11,2 23,4 30,1 26,7 21,3 13 7 23 12 SW 1019,0 45 2 0,0
18.06.2018 17:00:00 23,9 9,2 27,8 31,1 26,2 21,3 12 6 21 11 WSW 1018,9 45 16 0,0
18.06.2018 16:00:00 24,0 9,5 28,2 30,7 25,6 21,3 14 8 26 14 WSW 1019,4 45 35 0,0
18.06.2018 15:00:00 22,7 10,0 25,9 29,7 25,0 21,3 14 8 26 14 WSW 1019,7 45 5 0,0
18.06.2018 14:00:00 22,3 8,9 26,3 29,3 24,3 21,3 16 9 27 15 WSW 1019,8 40 35 0,0
18.06.2018 13:00:00 20,7 10,5 23,4 27,8 23,6 21,3 14 8 25 14 WSW 1020,0 45 28 0,0
18.06.2018 12:00:00 20,3 10,3 24,3 25,8 23,1 21,3 12 7 21 11 WSW 1020,3 40 17 0,0
18.06.2018 11:00:00 19,2 11,3 22,2 23,4 22,9 21,3 11 6 18 10 WSW 1020,3 40 1 0,0
18.06.2018 10:00:00 17,6 11,6 19,0 22,3 22,8 21,3 11 6 22 12 WSW 1020,3 40 0 0,0
18.06.2018 09:00:00 17,2 11,9 18,6 21,7 22,8 21,3 9 5 14 7 W 1020,0 40 1 0,0
18.06.2018 08:00:00 15,7 11,0 16,2 21,0 23,0 21,3 10 5 16 9 W 1019,9 35 0 0,0
18.06.2018 07:00:00 15,8 11,0 16,3 20,7 23,2 21,3 8 5 12 6 W 1019,2 40 24 0,0
18.06.2018 06:00:00 14,6 10,3 14,7 20,3 23,6 21,2 8 4 18 10 W 1018,8 40 35 0,0
18.06.2018 05:00:00 14,0 10,1 12,5 20,4 24,0 21,2 14 7 19 10 W 1019,1 40 0 0,0
18.06.2018 04:00:00 13,6 9,7 10,3 20,8 24,5 21,2 12 7 20 11 W 1018,8 40 0 0,0
18.06.2018 03:00:00 13,8 10,0 10,5 21,4 25,1 21,2 15 8 18 10 W 1018,5 45 0 0,0
18.06.2018 02:00:00 14,2 9,9 10,8 22,2 25,6 21,2 14 7 20 11 WSW 1018,5 45 0 0,0
18.06.2018 01:00:00 14,9 9,9 11,4 23,1 26,2 21,2 12 6 19 10 W 1018,3 45 0 0,0
18.06.2018 00:00:00 15,7 9,7 12,4 24,1 26,8 21,2 12 7 15 8 W 1018,1 40 0 0,0
17.06.2018 23:00:00 16,7 9,3 13,8 25,3 27,4 21,2 10 5 19 10 WSW 1017,6 40 0 0,0
17.06.2018 22:00:00 19,0 8,7 17,2 26,7 27,9 21,2 13 7 26 14 WNW 1017,4 40 0 0,0
17.06.2018 21:00:00 20,8 8,6 19,8 28,3 28,3 21,1 18 10 36 19 WNW 1016,7 45 13 0,0
17.06.2018 20:00:00 22,0 8,5 22,2 29,5 28,6 21,1 21 12 35 19 WNW 1016,2 45 14 0,0
17.06.2018 19:00:00 23,0 8,9 24,1 30,8 28,8 21,1 17 9 35 19 WNW 1015,5 45 38 0,0
17.06.2018 18:00:00 23,3 9,5 24,3 31,9 28,8 21,1 21 11 33 18 WNW 1015,1 40 8 0,0
17.06.2018 17:00:00 23,7 10,4 25,4 33,4 28,5 21,1 19 10 39 21 WNW 1015,0 40 27 0,0
17.06.2018 16:00:00 24,7 10,9 27,9 33,9 28,0 21,1 23 12 37 20 W 1014,6 40 41 0,0
17.06.2018 15:00:00 23,7 12,4 26,0 34,3 27,2 21,1 21 11 36 19 W 1014,7 35 43 0,0
17.06.2018 14:00:00 24,7 13,0 29,0 33,1 26,4 21,1 20 11 34 19 W 1014,6 35 43 0,0
17.06.2018 13:00:00 25,0 14,0 29,7 32,1 25,6 21,1 15 8 32 17 W 1014,7 35 43 0,0
17.06.2018 12:00:00 24,1 12,9 28,7 30,6 24,7 21,1 15 8 28 15 WNW 1014,8 35 58 0,0
17.06.2018 11:00:00 23,0 13,9 27,0 28,2 24,0 21,1 16 9 32 18 W 1015,0 30 53 0,0
17.06.2018 10:00:00 22,1 14,5 25,3 26,1 23,6 21,1 14 7 29 16 W 1014,8 30 59 0,0
17.06.2018 09:00:00 21,3 13,5 23,9 23,6 23,4 21,0 15 8 21 12 W 1014,3 28 60 0,0
17.06.2018 08:00:00 19,3 13,0 20,2 21,6 23,6 21,0 16 9 29 16 W 1014,1 28 60 0,0
17.06.2018 07:00:00 18,4 12,7 17,4 21,5 23,9 21,0 17 9 24 13 WSW 1013,8 35 53 0,0
17.06.2018 06:00:00 18,2 11,7 15,8 21,6 24,3 21,0 17 9 23 12 S 1013,3 40 24 0,0
17.06.2018 05:00:00 17,8 11,2 14,6 22,1 24,7 21,0 16 8 23 12 S 1013,5 40 0 0,0
17.06.2018 04:00:00 18,5 11,4 15,1 22,6 25,1 21,0 16 9 23 13 S 1013,6 40 0 0,0
17.06.2018 03:00:00 18,8 11,4 15,9 23,3 25,5 21,0 16 9 21 12 S 1013,8 40 0 0,0
17.06.2018 02:00:00 19,2 10,8 16,6 24,0 26,0 21,0 15 8 21 11 S 1013,9 40 0 0,0
17.06.2018 01:00:00 20,5 10,8 18,7 24,7 26,4 20,9 12 6 19 11 S 1013,9 40 0 0,0
17.06.2018 00:00:00 20,8 11,0 18,3 25,2 26,9 20,9 15 8 20 11 S 1013,9 45 0 0,0
16.06.2018 23:00:00 20,7 11,1 17,7 26,2 27,3 20,9 14 8 16 9 SSW 1014,0 45 0 0,0
16.06.2018 22:00:00 22,1 11,2 19,8 27,5 27,7 20,9 9 5 11 6 S 1013,8 40 0 0,0
16.06.2018 21:00:00 23,2 11,6 22,4 28,6 28,0 20,9 8 5 13 7 WSW 1013,7 45 0 0,0
16.06.2018 20:00:00 24,5 12,7 24,4 29,8 28,2 20,9 8 5 16 9 S 1013,5 45 0 0,0
16.06.2018 19:00:00 26,1 11,3 26,8 30,9 28,2 20,9 6 3 14 8 SSW 1013,5 40 6 0,0
16.06.2018 18:00:00 26,2 11,3 27,8 31,8 28,1 20,9 8 4 25 13 S 1013,7 40 19 0,0
16.06.2018 17:00:00 25,9 10,9 27,6 32,7 27,8 20,9 8 5 21 11 S 1014,2 40 20 0,0
16.06.2018 16:00:00 26,5 10,6 30,2 32,3 27,4 20,9 9 5 17 9 S 1014,5 40 16 0,0
16.06.2018 15:00:00 25,4 12,0 27,6 32,6 26,9 20,9 9 5 16 8 W 1014,9 40 2 0,0
16.06.2018 14:00:00 25,7 11,8 30,6 32,5 26,2 20,9 6 3 16 9 E 1015,4 40 23 0,0
16.06.2018 13:00:00 24,7 12,0 27,4 32,5 25,2 20,9 10 5 25 13 S 1016,0 40 37 0,0
16.06.2018 12:00:00 25,2 11,1 29,7 30,3 24,4 20,9 7 4 22 12 S 1016,4 35 58 0,0
16.06.2018 11:00:00 23,4 11,6 27,4 27,6 23,8 20,9 4 2 16 9 ESE 1016,7 35 31 0,0
16.06.2018 10:00:00 22,0 12,7 24,7 25,5 23,4 20,9 7 4 16 9 SE 1016,9 35 7 0,0
16.06.2018 09:00:00 20,9 13,4 22,5 23,9 23,3 20,9 7 4 18 10 SE 1017,0 35 9 0,0
16.06.2018 08:00:00 19,2 13,4 20,2 22,4 23,4 20,9 7 4 10 5 SSE 1017,0 35 0 0,0
16.06.2018 07:00:00 17,9 12,9 18,3 21,9 23,6 20,8 7 4 15 8 SSE 1017,0 35 0 0,0
16.06.2018 06:00:00 16,8 13,1 17,0 21,8 23,9 20,8 9 5 15 8 SE 1017,2 35 0 0,0
16.06.2018 05:00:00 16,7 13,1 16,5 22,1 24,2 20,8 9 5 16 8 SE 1017,3 35 0 0,0
16.06.2018 04:00:00 17,0 13,2 16,4 22,6 24,6 20,8 11 6 14 8 S 1017,4 40 0 0,0
16.06.2018 03:00:00 17,5 13,0 17,4 23,1 24,9 20,8 7 4 19 10 SSE 1017,4 40 0 0,0
16.06.2018 02:00:00 18,0 12,9 17,2 23,6 25,3 20,8 13 7 18 10 SSE 1017,2 40 0 0,0
16.06.2018 01:00:00 18,6 13,5 18,1 24,2 25,7 20,8 7 4 11 6 SE 1017,2 45 0 0,0
16.06.2018 00:00:00 18,8 13,0 18,3 24,8 26,1 20,8 8 4 12 6 SSW 1017,1 45 0 0,0
15.06.2018 23:00:00 18,9 12,9 18,4 25,6 26,6 20,8 9 5 11 6 S 1017,1 45 0 0,0
15.06.2018 22:00:00 19,6 13,2 19,3 26,6 27,0 20,8 8 4 10 5 S 1017,1 45 0 0,0
15.06.2018 21:00:00 20,4 13,0 20,3 27,8 27,3 20,8 8 4 11 6 S 1016,7 45 0 0,0
15.06.2018 20:00:00 21,2 12,8 22,0 29,0 27,5 20,8 8 4 16 9 SSW 1016,7 45 0 0,0
15.06.2018 19:00:00 21,7 12,8 22,9 30,3 27,6 20,8 8 5 18 10 S 1016,5 45 0 0,0
15.06.2018 18:00:00 21,7 12,6 23,2 32,2 27,3 20,8 10 6 25 13 SE 1016,6 45 5 0,0
15.06.2018 17:00:00 23,4 12,0 27,6 34,0 26,4 20,8 8 5 21 11 WSW 1016,5 45 50 0,0
15.06.2018 16:00:00 24,0 11,8 29,4 33,3 25,5 20,8 11 6 21 12 W 1016,7 45 60 0,0
15.06.2018 15:00:00 21,8 11,5 25,5 30,6 24,8 20,8 9 5 18 10 SW 1016,8 40 32 0,0
15.06.2018 14:00:00 21,3 12,6 25,5 29,2 24,1 20,8 11 6 22 12 W 1017,0 35 9 0,0
15.06.2018 13:00:00 21,4 13,3 26,0 28,2 23,4 20,8 11 6 21 11 WNW 1017,2 30 16 0,0
15.06.2018 12:00:00 19,8 13,4 24,2 25,9 22,9 20,8 10 5 19 11 WNW 1017,2 28 15 0,0
15.06.2018 11:00:00 19,1 13,5 22,0 23,9 22,7 20,8 9 5 18 10 W 1017,3 28 0 0,0
15.06.2018 10:00:00 17,8 12,9 19,9 23,0 22,6 20,8 5 3 14 7 WNW 1017,2 28 0 0,0
15.06.2018 09:00:00 17,3 13,3 18,3 21,9 22,5 20,8 9 5 16 9 NW 1016,9 26 0 0,0
15.06.2018 08:00:00 16,9 12,6 18,0 21,3 22,6 20,8 8 4 16 9 NW 1016,3 26 0 0,0
15.06.2018 07:00:00 16,0 12,6 16,4 20,7 22,9 20,8 6 4 12 7 NW 1016,1 25 0 0,0
15.06.2018 06:00:00 15,3 11,9 15,1 20,7 23,2 20,8 9 5 18 10 NW 1015,9 30 0 0,0
15.06.2018 05:00:00 15,4 11,7 15,2 21,0 23,6 20,8 11 6 19 10 WNW 1015,7 30 0 0,0
15.06.2018 04:00:00 15,4 10,9 14,8 21,3 24,0 20,8 13 7 27 14 WNW 1015,5 28 0 0,0
15.06.2018 03:00:00 15,8 10,4 15,4 21,7 24,4 20,8 16 9 28 15 WNW 1015,4 35 0 0,0
15.06.2018 02:00:00 16,0 9,9 15,2 22,3 24,9 20,8 14 7 24 13 W 1014,8 40 0 0,0
15.06.2018 01:00:00 16,2 8,6 14,6 22,9 25,5 20,8 12 6 16 8 SW 1014,6 45 0 0,0
15.06.2018 00:00:00 17,1 7,6 14,3 23,6 26,1 20,8 9 5 13 7 S 1014,7 45 0 0,0
14.06.2018 23:00:00 17,0 7,8 13,6 24,7 26,8 20,8 2 1 9 5 S 1014,6 40 0 0,0
14.06.2018 22:00:00 18,4 8,6 15,8 26,2 27,4 20,8 8 5 10 6 E 1014,2 35 0 0,0
14.06.2018 21:00:00 19,4 8,7 17,2 28,1 27,9 20,8 8 4 16 9 NNE 1013,6 40 32 0,0
14.06.2018 20:00:00 21,4 7,1 19,8 30,3 28,1 20,8 6 3 17 9 W 1013,1 40 60 0,0
14.06.2018 19:00:00 23,1 5,6 25,3 32,7 27,9 20,9 9 5 18 10 W 1012,6 40 60 0,0
14.06.2018 18:00:00 23,6 6,7 27,6 34,0 27,5 20,9 10 5 23 12 WSW 1013,0 40 60 0,0
14.06.2018 17:00:00 23,4 6,0 28,0 34,7 26,8 20,9 10 5 22 12 WSW 1013,3 40 60 0,0
14.06.2018 16:00:00 22,6 7,1 27,4 34,6 25,9 20,9 10 6 20 11 WNW 1014,1 40 60 0,0
14.06.2018 15:00:00 21,7 7,4 26,2 34,0 24,8 21,0 7 4 22 12 NW 1014,8 40 60 0,0
14.06.2018 14:00:00 19,8 6,2 25,2 32,8 23,6 21,0 9 5 20 11 SW 1015,4 40 60 0,0
14.06.2018 13:00:00 19,2 5,9 23,6 30,7 22,4 21,0 9 5 24 13 W 1015,7 40 60 0,0
14.06.2018 12:00:00 18,4 7,5 23,1 28,2 21,4 21,0 6 3 21 11 W 1016,1 40 58 0,0
14.06.2018 11:00:00 17,7 6,7 22,6 25,5 20,5 21,1 10 5 23 12 NW 1016,4 40 57 0,0
14.06.2018 10:00:00 16,7 6,5 20,0 22,1 20,0 21,1 13 7 22 12 W 1016,5 40 46 0,0
14.06.2018 09:00:00 15,3 7,1 18,3 19,6 19,8 21,1 11 6 19 10 WNW 1016,6 40 53 0,0
14.06.2018 08:00:00 13,1 8,2 14,3 17,2 19,9 21,1 11 6 22 12 W 1016,6 40 41 0,0
14.06.2018 07:00:00 12,5 8,7 13,1 17,3 20,1 21,2 9 5 17 9 W 1016,7 40 0 0,0

tt = Température de l'air
td = dewpoint
tt 5cm = Température de l'air 5cm
tt -5cm = Température de l'air -5cm
tt -20cm = Température de l'air -20cm
tt -100cm = Température de l'air -100cm
ff = Vitesse du vent
fx = gusts
dd = Direction du vent
ppp = reduced air pressure
vv = visibility
sd = Ensoleillement
rr = Quantités de précipitations

stations d'obs. à proximité